This is the latest recevied weather packets stored in our database for station/object EA4BCR. If no packets are shown the sender has not sent any weather packets the latest 10 day(s).
| Time | Temp. | Humidity | Pressure | Rain* | Wind** | Luminosity | Snow |
|---|---|---|---|---|---|---|---|
| 1777933257 | 11.67° C | 84% | 1014.2 hPa | - | - | - | - |
| 1777932653 | 12.22° C | 83% | 1014 hPa | - | - | - | - |
| 1777932053 | 12.78° C | 79% | 1013.9 hPa | - | - | - | - |
| 1777931453 | 12.78° C | 82% | 1013.9 hPa | - | - | - | - |
| 1777930854 | 12.78° C | 77% | 1013.6 hPa | - | - | - | - |
| 1777930253 | 12.78° C | 77% | 1013.7 hPa | - | - | - | - |
| 1777929654 | 13.33° C | 77% | 1013.7 hPa | - | - | - | - |
| 1777929053 | 13.33° C | 74% | 1013.6 hPa | - | - | - | - |
| 1777928453 | 13.33° C | 71% | 1013.6 hPa | - | - | - | - |
| 1777927853 | 13.33° C | 72% | 1013.5 hPa | - | - | - | - |
| 1777927253 | 13.33° C | 69% | 1013.3 hPa | - | - | - | - |
| 1777926653 | 13.89° C | 69% | 1013.2 hPa | - | - | - | - |
| 1777926053 | 13.89° C | 68% | 1012.9 hPa | - | - | - | - |
| 1777925453 | 14.44° C | 70% | 1012.6 hPa | - | - | - | - |
| 1777924854 | 15° C | 69% | 1012.2 hPa | - | - | - | - |
| 1777924253 | 15° C | 64% | 1012 hPa | - | - | - | - |
| 1777923653 | 15° C | 79% | 1011.9 hPa | - | - | - | - |
| 1777923053 | 15.56° C | 60% | 1011.5 hPa | - | - | - | - |
| 1777922453 | 15.56° C | 59% | 1011.3 hPa | - | - | - | - |
| 1777921853 | 16.11° C | 58% | 1011.1 hPa | - | - | - | - |
| 1777921253 | 16.67° C | 58% | 1010.8 hPa | - | - | - | - |
| 1777920653 | 16.67° C | 54% | 1010.8 hPa | - | - | - | - |
| 1777920053 | 16.67° C | 52% | 1010.6 hPa | - | - | - | - |
| 1777919453 | 17.22° C | 59% | 1010.3 hPa | - | - | - | - |
| 1777918853 | 17.22° C | 52% | 1010.2 hPa | - | - | - | - |
* Rain since midnight (hover to see other rain measurements)
** Current wind speed in m/s (hover to see current wind gust speed)